Demopolis Lake Weather Center

Moon Phase Calendar



Demopolis Lake Water Level
Online Cameras

 


      

Current Conditions in Demopolis
9/25/2022 3:45:29 AM

67°F
Feels Like 66
Clear
Humidity
76%
Pressure
29.94"
Wind
3.7 mph (S)
Dew Point
59°F
UV Index
0/10 (Low)
Visibility
6 mi

Hourly Forecast

Date & Time Sun, Sep 25
3:00 AM
Sun, Sep 25
4:00 AM
Sun, Sep 25
5:00 AM
Sun, Sep 25
6:00 AM
Sun, Sep 25
7:00 AM
Sun, Sep 25
8:00 AM
Sun, Sep 25
9:00 AM
Sun, Sep 25
10:00 AM
Sun, Sep 25
11:00 AM
Sun, Sep 25
12:00 PM
Sun, Sep 25
1:00 PM
Sun, Sep 25
2:00 PM
Sun, Sep 25
3:00 PM
Sun, Sep 25
4:00 PM
Sun, Sep 25
5:00 PM
Sun, Sep 25
6:00 PM
Sun, Sep 25
7:00 PM
Sun, Sep 25
8:00 PM
Sun, Sep 25
9:00 PM
Sun, Sep 25
10:00 PM
Sun, Sep 25
11:00 PM
Mon, Sep 26
12:00 AM
Mon, Sep 26
1:00 AM
Mon, Sep 26
2:00 AM
Mon, Sep 26
3:00 AM
Mon, Sep 26
4:00 AM
Mon, Sep 26
5:00 AM
Mon, Sep 26
6:00 AM
Mon, Sep 26
7:00 AM
Mon, Sep 26
8:00 AM
Mon, Sep 26
9:00 AM
Mon, Sep 26
10:00 AM
Mon, Sep 26
11:00 AM
Mon, Sep 26
12:00 PM
Mon, Sep 26
1:00 PM
Mon, Sep 26
2:00 PM
Mon, Sep 26
3:00 PM
Mon, Sep 26
4:00 PM
Mon, Sep 26
5:00 PM
Mon, Sep 26
6:00 PM
Mon, Sep 26
7:00 PM
Mon, Sep 26
8:00 PM
Mon, Sep 26
9:00 PM
Mon, Sep 26
10:00 PM
Mon, Sep 26
11:00 PM
Tue, Sep 27
12:00 AM
Tue, Sep 27
1:00 AM
Tue, Sep 27
2:00 AM
Condition
Clear

Clear

Clear

Clear

Clear

Clear

Clear

Clear

Clear

Clear

Clouds

Clouds

Clouds

Clouds

Clouds

Clouds

Clouds

Rain

Rain

Rain

Rain

Clouds

Clouds

Clear

Clouds

Clouds

Clouds

Clouds

Clouds

Clouds

Clouds

Clouds

Clouds

Clouds

Clouds

Clear

Clear

Clear

Clear

Clear

Clear

Clear

Clear

Clear

Clear

Clear

Clear

Clear
Temperature 67°F67°F66°F66°F66°F70°F76°F81°F85°F87°F89°F89°F89°F88°F88°F84°F78°F75°F73°F71°F70°F70°F70°F69°F68°F68°F68°F67°F67°F68°F72°F76°F80°F84°F86°F87°F87°F86°F84°F78°F72°F68°F67°F65°F64°F63°F61°F60°F
Feels Like 67°F66°F66°F66°F66°F70°F76°F82°F86°F88°F90°F91°F91°F91°F91°F88°F79°F77°F74°F72°F71°F71°F71°F70°F69°F69°F69°F68°F67°F69°F72°F76°F80°F83°F84°F85°F85°F84°F82°F77°F70°F67°F65°F64°F62°F61°F60°F58°F
Cloudiness 1%1%1%1%2%7%8%8%8%10%15%41%43%51%43%35%29%93%83%57%43%36%31%2%42%42%56%63%56%17%41%48%50%42%35%0%0%0%0%0%0%0%0%0%0%0%0%0%
Visibility 6 mi6 mi6 mi6 mi6 mi6 mi6 mi6 mi6 mi6 mi6 mi6 mi6 mi6 mi6 mi6 mi6 mi6 mi6 mi6 mi6 mi6 mi6 mi6 mi6 mi6 mi6 mi6 mi6 mi6 mi6 mi6 mi6 mi6 mi6 mi6 mi6 mi6 mi6 mi6 mi6 mi6 mi6 mi6 mi6 mi6 mi6 mi6 mi
Precipitation 0%0%0%0%4%22%14%15%27%20%20%2%2%0%13%24%31%30%57%68%68%58%58%8%5%5%4%2%2%2%0%0%0%0%0%0%0%0%0%0%0%0%0%0%0%0%0%0%
Humidity 75%76%77%78%80%73%62%53%47%45%43%46%46%49%49%60%74%81%89%92%93%92%89%91%93%95%96%96%96%88%74%59%47%35%29%27%26%26%30%41%43%44%45%45%46%49%51%54%
Dew Point 58°F59°F59°F59°F60°F61°F62°F62°F62°F63°F64°F65°F65°F67°F67°F69°F68°F69°F69°F68°F67°F67°F66°F66°F66°F66°F66°F66°F65°F65°F63°F60°F58°F54°F51°F49°F48°F47°F49°F52°F48°F46°F44°F43°F43°F43°F43°F43°F
Pressure 29.94"29.94"29.94"29.94"29.97"29.97"29.97"29.97"29.97"29.94"29.91"29.88"29.85"29.85"29.83"29.83"29.85"29.85"29.88"29.88"29.88"29.88"29.88"29.88"29.88"29.88"29.88"29.91"29.94"29.94"29.97"29.97"29.97"29.97"29.94"29.94"29.91"29.91"29.91"29.91"29.94"29.97"30"30"30"30.03"30.03"30.03"
Wind Speed 3.6 mph3.7 mph4.3 mph4.1 mph3.2 mph2.6 mph4 mph4.9 mph5 mph4.8 mph4.2 mph4.3 mph5.6 mph7.3 mph3.7 mph4.5 mph6.8 mph5.7 mph3.7 mph1.4 mph1.3 mph2.1 mph1.9 mph1.7 mph2.7 mph3 mph3.1 mph3.8 mph4.9 mph5.7 mph6.4 mph6.1 mph5.9 mph6.8 mph7.7 mph8.5 mph8.8 mph9 mph7.9 mph6.1 mph6.2 mph6.2 mph5.7 mph5.2 mph5.5 mph5.3 mph5.3 mph5.4 mph
Wind
Direction
181°
S
185°
S
183°
S
188°
S
211°
SSW
243°
WSW
214°
SW
211°
SSW
254°
WSW
289°
WNW
285°
WNW
308°
NW
339°
NNW
344°
NNW
328°
NNW
175°
S
167°
SSE
185°
S
215°
SW
94°
E
123°
ESE
186°
S
227°
SW
292°
WNW
359°
N
40°
NE
44°
NE
23°
NNE

N
13°
NNE
17°
NNE
17°
NNE
21°
NNE

N
351°
N
345°
NNW
343°
NNW
343°
NNW
351°
N

N

N

N
16°
NNE
21°
NNE
14°
NNE
13°
NNE
12°
NNE
15°
NNE

Daily Forecast

Date High Low Precip. Humidity
Today
Sep 25

Rain
89 °F
66 °F
68%
45%
Monday
Sep 26

Clouds
87 °F
65 °F
58%
35%
Tuesday
Sep 27

Clear
81 °F
55 °F
0%
21%
Wednesday
Sep 28

Clouds
83 °F
56 °F
0%
21%
Thursday
Sep 29

Clouds
73 °F
62 °F
21%
29%
Friday
Sep 30

Rain
61 °F
57 °F
100%
96%
Saturday
Oct 1

Rain
69 °F
59 °F
32%
83%
Sunday
Oct 2

Clear
81 °F
60 °F
0%
57%
Monday
Oct 3

Clear
87 °F
63 °F
0%
43%
Tuesday
Oct 4

Clear
76 °F
57 °F
0%
46%
Wednesday
Oct 5

Clear
75 °F
51 °F
0%
42%
Thursday
Oct 6

Clear
78 °F
54 °F
0%
41%
Friday
Oct 7

Clear
82 °F
55 °F
0%
39%
Saturday
Oct 8

Rain
86 °F
60 °F
31%
43%
Sunday
Oct 9

Clear
82 °F
61 °F
4%
38%
Monday
Oct 10

Clear
84 °F
54 °F
0%
35%

Temperature 8-14 Day Outlook



Precipitation 8-14 Day Outlook




Quick Links
Demopolis Lake News
Demopolis Lake Photos
Demopolis Lake Videos




About Us
Contact Us
Site Map
Search Site
Advertise With Us
   
www.DemopolisLake.com
THE DEMOPOLIS LAKE WEBSITE

Copyright 2022, Lakes Online
Privacy    |    Legal